N7TA KDVT-KOGD

Flight info

Callsign N7TA
Flight time 1h 13m
Altitude 47000
Route DVT3 PXR QUAKY SNOBL CARTL GCN DRAPR WLKRR1
Aircraft C750/M-SBDE3FGHRWXY/S

Departure

Time 2026-04-25 13:50
Airport Phoenix Deer Valley Airport (KDVT)

Arrival

Time 2026-04-25 15:04
Airport Ogden Hinckley Airport (KOGD)
Time Latitude Longitude Altitude Speed Heading
2026-04-25 13:20 33.68597 -112.08291 1468 ft 0 kts 352°
2026-04-25 13:44 33.68597 -112.08292 1468 ft 1 kts 352°
2026-04-25 13:44 33.68631 -112.08298 1468 ft 7 kts 351°
2026-04-25 13:45 33.68674 -112.08321 1467 ft 7 kts 297°
2026-04-25 13:45 33.68674 -112.08377 1466 ft 7 kts 266°
2026-04-25 13:45 33.68670 -112.08451 1463 ft 10 kts 266°
2026-04-25 13:45 33.68665 -112.08545 1464 ft 12 kts 266°
2026-04-25 13:46 33.68659 -112.08647 1463 ft 12 kts 266°
2026-04-25 13:46 33.68653 -112.08745 1463 ft 12 kts 266°
2026-04-25 13:46 33.68647 -112.08843 1463 ft 11 kts 266°
2026-04-25 13:46 33.68643 -112.08941 1457 ft 12 kts 266°
2026-04-25 13:47 33.68635 -112.09049 1459 ft 14 kts 264°
2026-04-25 13:47 33.68629 -112.09168 1458 ft 14 kts 265°
2026-04-25 13:47 33.68622 -112.09281 1458 ft 13 kts 266°
2026-04-25 13:47 33.68615 -112.09398 1457 ft 15 kts 266°
2026-04-25 13:48 33.68607 -112.09529 1453 ft 16 kts 266°
2026-04-25 13:48 33.68616 -112.09611 1453 ft 6 kts 332°
2026-04-25 13:48 33.68654 -112.09618 1454 ft 6 kts 360°
2026-04-25 13:48 33.68684 -112.09602 1456 ft 4 kts 66°
2026-04-25 13:49 33.68686 -112.09591 1456 ft 0 kts 83°
2026-04-25 13:49 33.68692 -112.09489 1457 ft 51 kts 86°
2026-04-25 13:50 33.68744 -112.08573 1467 ft 153 kts 86°
2026-04-25 13:50 33.68799 -112.07156 1820 ft 184 kts 88°
2026-04-25 13:50 33.68987 -112.05512 2273 ft 217 kts 72°
2026-04-25 13:50 33.69748 -112.03845 2936 ft 239 kts 57°
2026-04-25 13:51 33.70714 -112.02094 3566 ft 264 kts 56°
2026-04-25 13:51 33.71979 -112.00429 4382 ft 277 kts 34°
2026-04-25 13:51 33.73786 -111.99640 5476 ft 277 kts 12°
2026-04-25 13:51 33.75701 -111.99234 6363 ft 284 kts
2026-04-25 13:52 33.77607 -111.99794 7188 ft 284 kts 325°
2026-04-25 13:52 33.78852 -112.01524 8298 ft 273 kts 290°
2026-04-25 13:52 33.79033 -112.03727 9452 ft 264 kts 257°
2026-04-25 13:52 33.78386 -112.05760 10354 ft 267 kts 237°
2026-04-25 13:53 33.77068 -112.07461 10672 ft 291 kts 223°
2026-04-25 13:53 33.75467 -112.09073 10894 ft 316 kts 220°
2026-04-25 13:53 33.73695 -112.10740 11496 ft 326 kts 218°
2026-04-25 13:53 33.71709 -112.12084 12340 ft 329 kts 210°
2026-04-25 13:54 33.69663 -112.13358 13036 ft 333 kts 212°
2026-04-25 13:54 33.67397 -112.14185 13519 ft 354 kts 188°
2026-04-25 13:54 33.64940 -112.13627 14228 ft 371 kts 163°
2026-04-25 13:54 33.62804 -112.11762 14814 ft 394 kts 138°
2026-04-25 13:55 33.61420 -112.08861 15402 ft 412 kts 112°
2026-04-25 13:55 33.61091 -112.05418 16019 ft 424 kts 87°
2026-04-25 13:55 33.61905 -112.02022 16663 ft 428 kts 62°
2026-04-25 13:55 33.63722 -111.99228 17365 ft 424 kts 40°
2026-04-25 13:56 33.65997 -111.97056 18051 ft 422 kts 28°
2026-04-25 13:56 33.68679 -111.95579 18697 ft 417 kts 12°
2026-04-25 13:56 33.71470 -111.95030 19333 ft 409 kts 356°
2026-04-25 13:56 33.74301 -111.95112 20024 ft 407 kts 350°
2026-04-25 13:57 33.77146 -111.95294 20695 ft 412 kts 351°
2026-04-25 13:57 33.79060 -111.95306 21123 ft 418 kts 355°
2026-04-25 13:57 33.82982 -111.94955 22061 ft 426 kts 359°
2026-04-25 13:57 33.85943 -111.94696 22746 ft 428 kts 356°
2026-04-25 13:58 33.88922 -111.94606 23426 ft 430 kts 354°
2026-04-25 13:58 33.91930 -111.94520 24013 ft 435 kts 355°
2026-04-25 13:58 33.94967 -111.94333 24596 ft 439 kts 356°
2026-04-25 13:58 33.98034 -111.94121 25139 ft 443 kts 355°
2026-04-25 13:59 34.01117 -111.93966 25711 ft 445 kts 354°
2026-04-25 13:59 34.04233 -111.93832 26269 ft 449 kts 354°
2026-04-25 13:59 34.07364 -111.93663 26837 ft 453 kts 355°
2026-04-25 13:59 34.10507 -111.93710 27347 ft 448 kts 347°
2026-04-25 14:00 34.13615 -111.94084 27914 ft 451 kts 346°
2026-04-25 14:00 34.16759 -111.94426 28375 ft 455 kts 346°
2026-04-25 14:00 34.19928 -111.94752 28932 ft 459 kts 346°
2026-04-25 14:00 34.23080 -111.95080 29488 ft 462 kts 346°
2026-04-25 14:01 34.26304 -111.95454 29901 ft 468 kts 346°
2026-04-25 14:01 34.29558 -111.95829 30379 ft 470 kts 346°
2026-04-25 14:01 34.32827 -111.96180 30879 ft 472 kts 346°
2026-04-25 14:01 34.36092 -111.96526 31593 ft 468 kts 345°
2026-04-25 14:02 34.39324 -111.96887 32340 ft 464 kts 345°
2026-04-25 14:02 34.42524 -111.97253 33080 ft 461 kts 344°
2026-04-25 14:02 34.45709 -111.97605 33833 ft 458 kts 344°
2026-04-25 14:02 34.46781 -111.97720 34081 ft 457 kts 343°
2026-04-25 14:03 34.52042 -111.98298 34989 ft 456 kts 343°
2026-04-25 14:03 34.55202 -111.98652 35558 ft 455 kts 342°
2026-04-25 14:03 34.58364 -111.99002 36128 ft 455 kts 342°
2026-04-25 14:03 34.61520 -111.99349 36660 ft 456 kts 342°
2026-04-25 14:04 34.64676 -111.99700 37252 ft 455 kts 342°
2026-04-25 14:04 34.67783 -112.00045 37863 ft 454 kts 341°
2026-04-25 14:04 34.70938 -112.00395 38501 ft 454 kts 341°
2026-04-25 14:04 34.74077 -112.00742 39018 ft 452 kts 342°
2026-04-25 14:05 34.77211 -112.01091 39494 ft 452 kts 342°
2026-04-25 14:05 34.80347 -112.01443 39950 ft 452 kts 342°
2026-04-25 14:05 34.83478 -112.01796 40404 ft 452 kts 342°
2026-04-25 14:05 34.86609 -112.02147 40856 ft 452 kts 343°
2026-04-25 14:06 34.89741 -112.02495 41294 ft 452 kts 343°
2026-04-25 14:06 34.92870 -112.02848 41780 ft 452 kts 343°
2026-04-25 14:06 34.96000 -112.03206 42217 ft 452 kts 343°
2026-04-25 14:06 34.99145 -112.03561 42592 ft 452 kts 343°
2026-04-25 14:07 35.02284 -112.03919 42964 ft 453 kts 344°
2026-04-25 14:07 35.05422 -112.04260 43435 ft 452 kts 344°
2026-04-25 14:07 35.08557 -112.04609 43872 ft 451 kts 344°
2026-04-25 14:07 35.11682 -112.04971 44277 ft 451 kts 344°
2026-04-25 14:08 35.14769 -112.05325 44648 ft 451 kts 345°
2026-04-25 14:08 35.17899 -112.05675 45085 ft 451 kts 344°
2026-04-25 14:08 35.21028 -112.06026 45406 ft 451 kts 344°
2026-04-25 14:08 35.24158 -112.06383 45706 ft 451 kts 344°
2026-04-25 14:09 35.27288 -112.06740 46007 ft 451 kts 344°
2026-04-25 14:09 35.30414 -112.07093 46274 ft 451 kts 344°
2026-04-25 14:09 35.33542 -112.07449 46531 ft 451 kts 344°
2026-04-25 14:10 35.39805 -112.08161 47026 ft 452 kts 344°
2026-04-25 14:10 35.46162 -112.08892 46968 ft 464 kts 345°
2026-04-25 14:11 35.52623 -112.09624 46938 ft 474 kts 345°
2026-04-25 14:11 35.59263 -112.10385 46909 ft 483 kts 345°
2026-04-25 14:12 35.65993 -112.11151 46878 ft 486 kts 345°
2026-04-25 14:12 35.72721 -112.11923 46885 ft 485 kts 345°
2026-04-25 14:13 35.79450 -112.12696 46885 ft 485 kts 345°
2026-04-25 14:13 35.86193 -112.13473 47025 ft 488 kts 345°
2026-04-25 14:14 35.92963 -112.14251 47005 ft 488 kts 345°
2026-04-25 14:14 35.99742 -112.14628 47013 ft 495 kts 351°
2026-04-25 14:15 36.06637 -112.14658 46978 ft 495 kts 350°
2026-04-25 14:15 36.13528 -112.14701 46969 ft 496 kts 351°
2026-04-25 14:16 36.20418 -112.14717 46924 ft 494 kts 350°
2026-04-25 14:16 36.26147 -112.14776 46893 ft 494 kts 350°
2026-04-25 14:17 36.33054 -112.14797 46859 ft 496 kts 351°
2026-04-25 14:17 36.39952 -112.14838 46853 ft 496 kts 350°
2026-04-25 14:18 36.46874 -112.14874 46854 ft 498 kts 351°
2026-04-25 14:18 36.53811 -112.14908 46880 ft 498 kts 351°
2026-04-25 14:19 36.60735 -112.14947 46835 ft 498 kts 351°
2026-04-25 14:19 36.67654 -112.14981 46827 ft 497 kts 351°
2026-04-25 14:20 36.74532 -112.15020 46831 ft 497 kts 351°
2026-04-25 14:20 36.81461 -112.15056 46823 ft 497 kts 351°
2026-04-25 14:21 36.88371 -112.15093 46818 ft 497 kts 351°
2026-04-25 14:21 36.95294 -112.15130 46815 ft 497 kts 351°
2026-04-25 14:22 37.02223 -112.15167 46818 ft 498 kts 351°
2026-04-25 14:22 37.09147 -112.15203 46817 ft 497 kts 351°
2026-04-25 14:23 37.16065 -112.15241 46823 ft 497 kts 351°
2026-04-25 14:23 37.22992 -112.15278 46831 ft 498 kts 352°
2026-04-25 14:24 37.29914 -112.15314 46821 ft 497 kts 352°
2026-04-25 14:24 37.36835 -112.15352 46834 ft 497 kts 352°
2026-04-25 14:25 37.43749 -112.15391 46877 ft 497 kts 352°
2026-04-25 14:25 37.50633 -112.15426 46918 ft 497 kts 352°
2026-04-25 14:26 37.57552 -112.15466 46962 ft 497 kts 352°
2026-04-25 14:26 37.64488 -112.15501 46980 ft 498 kts 352°
2026-04-25 14:27 37.71430 -112.15541 46990 ft 498 kts 352°
2026-04-25 14:27 37.78368 -112.15578 46991 ft 498 kts 352°
2026-04-25 14:28 37.85307 -112.15617 46955 ft 499 kts 352°
2026-04-25 14:28 37.92213 -112.15656 46904 ft 500 kts 352°
2026-04-25 14:29 37.99164 -112.15690 46818 ft 500 kts 352°
2026-04-25 14:29 38.06113 -112.15730 46822 ft 499 kts 352°
2026-04-25 14:30 38.13077 -112.15769 46819 ft 500 kts 353°
2026-04-25 14:30 38.23511 -112.15826 46824 ft 500 kts 353°
2026-04-25 14:31 38.30466 -112.15863 46819 ft 499 kts 353°
2026-04-25 14:31 38.37378 -112.15903 46819 ft 499 kts 353°
2026-04-25 14:32 38.44333 -112.15941 46819 ft 500 kts 353°
2026-04-25 14:32 38.51315 -112.15981 46810 ft 502 kts 353°
2026-04-25 14:33 38.58301 -112.16018 46817 ft 501 kts 353°
2026-04-25 14:33 38.65282 -112.16058 46823 ft 501 kts 353°
2026-04-25 14:34 38.72253 -112.16095 46855 ft 499 kts 353°
2026-04-25 14:34 38.79236 -112.16137 46890 ft 502 kts 353°
2026-04-25 14:35 38.86194 -112.16172 46921 ft 500 kts 353°
2026-04-25 14:35 38.93131 -112.16215 46934 ft 501 kts 353°
2026-04-25 14:36 39.00119 -112.16253 46934 ft 501 kts 353°
2026-04-25 14:36 39.07100 -112.16292 46917 ft 501 kts 353°
2026-04-25 14:37 39.14070 -112.16331 46888 ft 499 kts 353°
2026-04-25 14:37 39.17506 -112.16346 46229 ft 490 kts 353°
2026-04-25 14:37 39.20891 -112.16364 45580 ft 482 kts 353°
2026-04-25 14:38 39.24172 -112.16385 44949 ft 474 kts 353°
2026-04-25 14:38 39.27482 -112.16404 44289 ft 465 kts 353°
2026-04-25 14:38 39.30648 -112.16421 43684 ft 457 kts 352°
2026-04-25 14:38 39.33818 -112.16441 43086 ft 454 kts 352°
2026-04-25 14:39 39.36980 -112.16464 42494 ft 455 kts 352°
2026-04-25 14:39 39.40160 -112.16485 41910 ft 459 kts 352°
2026-04-25 14:39 39.43366 -112.16500 41284 ft 460 kts 352°
2026-04-25 14:39 39.46576 -112.16516 40673 ft 462 kts 352°
2026-04-25 14:40 39.49790 -112.16534 40066 ft 461 kts 351°
2026-04-25 14:40 39.53010 -112.16555 39464 ft 461 kts 351°
2026-04-25 14:40 39.56221 -112.16575 38855 ft 461 kts 351°
2026-04-25 14:40 39.59426 -112.16590 38187 ft 461 kts 351°
2026-04-25 14:41 39.62630 -112.16607 37583 ft 460 kts 351°
2026-04-25 14:41 39.65830 -112.16631 36985 ft 460 kts 351°
2026-04-25 14:41 39.69035 -112.16649 36375 ft 461 kts 351°
2026-04-25 14:41 39.72244 -112.16663 35767 ft 461 kts 351°
2026-04-25 14:42 39.75454 -112.16682 35163 ft 461 kts 351°
2026-04-25 14:42 39.77572 -112.16695 34756 ft 460 kts 351°
2026-04-25 14:42 39.81857 -112.16721 33967 ft 460 kts 351°
2026-04-25 14:42 39.85029 -112.16740 33324 ft 463 kts 351°
2026-04-25 14:43 39.88256 -112.16758 32714 ft 465 kts 352°
2026-04-25 14:43 39.91496 -112.16777 32100 ft 467 kts 352°
2026-04-25 14:43 39.94751 -112.16796 31488 ft 468 kts 352°
2026-04-25 14:43 39.98016 -112.16814 30869 ft 470 kts 352°
2026-04-25 14:44 40.01302 -112.16834 30241 ft 472 kts 352°
2026-04-25 14:44 40.04577 -112.16851 29589 ft 469 kts 352°
2026-04-25 14:44 40.07819 -112.16866 28984 ft 465 kts 353°
2026-04-25 14:44 40.11043 -112.16884 28379 ft 460 kts 353°
2026-04-25 14:45 40.14235 -112.16905 27782 ft 456 kts 353°
2026-04-25 14:45 40.17395 -112.16926 27193 ft 453 kts 353°
2026-04-25 14:45 40.20544 -112.16943 26596 ft 449 kts 353°
2026-04-25 14:45 40.23612 -112.16959 26047 ft 445 kts 353°
2026-04-25 14:46 40.26693 -112.16978 25454 ft 441 kts 353°
2026-04-25 14:46 40.29749 -112.17013 24880 ft 435 kts 352°
2026-04-25 14:46 40.32704 -112.17527 24374 ft 425 kts 343°
2026-04-25 14:46 40.35602 -112.18217 23825 ft 422 kts 343°
2026-04-25 14:47 40.38491 -112.18888 23265 ft 419 kts 344°
2026-04-25 14:47 40.40395 -112.19310 22896 ft 417 kts 344°
2026-04-25 14:47 40.44192 -112.20166 22181 ft 412 kts 343°
2026-04-25 14:47 40.47002 -112.20820 21648 ft 408 kts 343°
2026-04-25 14:48 40.49789 -112.21461 21132 ft 406 kts 344°
2026-04-25 14:48 40.52568 -112.22090 20598 ft 403 kts 344°
2026-04-25 14:48 40.55324 -112.22714 20086 ft 400 kts 344°
2026-04-25 14:48 40.58058 -112.23344 19571 ft 398 kts 344°
2026-04-25 14:49 40.60778 -112.23970 19055 ft 395 kts 344°
2026-04-25 14:49 40.63477 -112.24586 18537 ft 392 kts 344°
2026-04-25 14:49 40.66126 -112.25197 18003 ft 389 kts 344°
2026-04-25 14:49 40.68787 -112.25810 17482 ft 387 kts 344°
2026-04-25 14:50 40.71420 -112.26415 16973 ft 384 kts 345°
2026-04-25 14:50 40.74018 -112.27115 16441 ft 376 kts 338°
2026-04-25 14:50 40.76314 -112.28610 15956 ft 363 kts 321°
2026-04-25 14:50 40.78225 -112.30736 15463 ft 357 kts 313°
2026-04-25 14:51 40.80046 -112.32960 15001 ft 355 kts 313°
2026-04-25 14:51 40.81845 -112.35129 14524 ft 347 kts 313°
2026-04-25 14:51 40.83626 -112.37270 14064 ft 345 kts 313°
2026-04-25 14:51 40.85394 -112.39409 13593 ft 343 kts 313°
2026-04-25 14:52 40.87148 -112.41536 13124 ft 341 kts 314°
2026-04-25 14:52 40.88914 -112.43629 12662 ft 341 kts 316°
2026-04-25 14:52 40.91003 -112.45151 12192 ft 348 kts 335°
2026-04-25 14:52 40.92566 -112.45680 11893 ft 352 kts 347°
2026-04-25 14:53 40.95842 -112.45436 11287 ft 356 kts
2026-04-25 14:53 40.98191 -112.44676 10855 ft 340 kts 11°
2026-04-25 14:53 41.00401 -112.43938 10426 ft 316 kts 10°
2026-04-25 14:53 41.02474 -112.43280 10022 ft 296 kts
2026-04-25 14:54 41.04357 -112.42360 9573 ft 287 kts 28°
2026-04-25 14:54 41.05784 -112.40602 9215 ft 277 kts 51°
2026-04-25 14:54 41.06731 -112.38452 8907 ft 264 kts 59°
2026-04-25 14:54 41.07593 -112.36365 8590 ft 251 kts 59°
2026-04-25 14:55 41.08420 -112.34369 8263 ft 244 kts 60°
2026-04-25 14:55 41.08888 -112.32230 7833 ft 245 kts 90°
2026-04-25 14:55 41.08321 -112.30195 7745 ft 233 kts 124°
2026-04-25 14:55 41.07339 -112.28436 7914 ft 239 kts 131°
2026-04-25 14:56 41.06476 -112.26546 7921 ft 243 kts 105°
2026-04-25 14:56 41.06642 -112.24353 7932 ft 244 kts 65°
2026-04-25 14:56 41.07700 -112.22625 8005 ft 243 kts 42°
2026-04-25 14:56 41.08944 -112.21097 8006 ft 243 kts 41°
2026-04-25 14:57 41.10173 -112.19598 7999 ft 243 kts 41°
2026-04-25 14:57 41.11412 -112.18070 8004 ft 243 kts 42°
2026-04-25 14:57 41.12597 -112.16463 7988 ft 243 kts 45°
2026-04-25 14:57 41.13762 -112.14840 8002 ft 244 kts 45°
2026-04-25 14:58 41.14923 -112.13215 8005 ft 238 kts 45°
2026-04-25 14:58 41.15992 -112.11698 7984 ft 213 kts 45°
2026-04-25 14:58 41.16963 -112.10282 7984 ft 205 kts 45°
2026-04-25 14:58 41.17940 -112.08862 7991 ft 210 kts 44°
2026-04-25 14:59 41.18914 -112.07426 8000 ft 210 kts 46°
2026-04-25 14:59 41.19897 -112.05998 8004 ft 208 kts 44°
2026-04-25 14:59 41.20880 -112.04567 8001 ft 208 kts 45°
2026-04-25 14:59 41.21862 -112.03145 8002 ft 210 kts 44°
2026-04-25 15:00 41.22853 -112.01709 7994 ft 212 kts 45°
2026-04-25 15:00 41.23837 -112.00276 7994 ft 208 kts 45°
2026-04-25 15:00 41.24820 -111.98855 7996 ft 210 kts 44°
2026-04-25 15:00 41.25786 -111.97427 7988 ft 209 kts 45°
2026-04-25 15:01 41.26625 -111.95866 7903 ft 213 kts 68°
2026-04-25 15:01 41.26535 -111.93960 7864 ft 215 kts 115°
2026-04-25 15:01 41.25473 -111.92668 7852 ft 206 kts 162°
2026-04-25 15:01 41.24187 -111.92726 7856 ft 171 kts 210°
2026-04-25 15:02 41.23368 -111.93617 7879 ft 143 kts 227°
2026-04-25 15:02 41.22680 -111.94614 7425 ft 151 kts 238°
2026-04-25 15:02 41.22296 -111.95949 6415 ft 165 kts 265°
2026-04-25 15:02 41.22289 -111.97398 5578 ft 151 kts 268°
2026-04-25 15:03 41.21702 -111.98467 4969 ft 144 kts 215°
2026-04-25 15:03 41.20964 -111.99244 4695 ft 128 kts 224°
2026-04-25 15:03 41.20363 -112.00034 4506 ft 116 kts 227°
2026-04-25 15:03 41.19836 -112.00738 4444 ft 95 kts 225°
2026-04-25 15:04 41.19489 -112.01187 4449 ft 51 kts 224°
2026-04-25 15:04 41.19303 -112.01430 4449 ft 24 kts 224°
2026-04-25 15:04 41.19230 -112.01485 4449 ft 14 kts 196°
2026-04-25 15:04 41.19145 -112.01492 4449 ft 12 kts 180°
2026-04-25 15:05 41.19086 -112.01472 4449 ft 7 kts 122°
2026-04-25 15:05 41.19099 -112.01426 4451 ft 6 kts 43°
2026-04-25 15:05 41.19144 -112.01368 4451 ft 10 kts 45°
2026-04-25 15:06 41.19248 -112.01230 4450 ft 11 kts 44°
2026-04-25 15:06 41.19302 -112.01158 4449 ft 11 kts 45°
2026-04-25 15:06 41.19345 -112.01095 4448 ft 8 kts 72°
2026-04-25 15:06 41.19359 -112.01029 4448 ft 6 kts 79°
2026-04-25 15:07 41.19372 -112.00976 4448 ft 6 kts 50°
2026-04-25 15:07 41.19385 -112.00959 4447 ft 0 kts 44°